This demonstration page uses our WeatherBlox Daily Observations layout. Learn more.

Left ArrowRight Arrow

39.08367, -84.50855

Hourly Observations for August 12, 2019

Temp ( °F °C ) Dew Point ( °F °C ) Humidity (%) Winds ( mph kmh ) Pressure ( in mb ) Visibility ( mi km ) Precip ( " mm )
12:53 am 00:53 Clear 65 18.3 63 17.2 93 93 E 3 6 29.99 1016 10 16 N/A
1:53 am 01:53 Clear 65 18.3 63 17.2 93 93 N N/A 29.98 1015 10 16 N/A
2:53 am 02:53 Clear 64 17.8 63 17.2 96 96 N N/A 29.98 1015 10 16 N/A
3:53 am 03:53 Clear with Mist and Fog 63 17.2 63 17.2 100 100 N N/A 29.97 1015 3 5 N/A
4:53 am 04:53 Clear 65 18.3 63 17.2 93 93 N N/A 29.97 1015 10 16 N/A
5:53 am 05:53 Clear 64 17.8 63 17.2 96 96 N N/A 29.96 1015 10 16 N/A
6:53 am 06:53 Sunny 63 17.2 62 16.7 97 97 N N/A 29.97 1015 10 16 N/A
7:53 am 07:53 Sunny 66 18.9 64 17.8 93 93 N N/A 29.98 1015 10 16 N/A
8:53 am 08:53 Sunny 71 21.7 67 19.4 87 87 N N/A 29.98 1015 10 16 N/A
9:53 am 09:53 Sunny 73 22.8 66 18.9 79 79 SW 5 7 29.98 1015 10 16 N/A
10:53 am 10:53 Sunny 77 25 67 19.4 71 71 S 6 9 29.98 1015 10 16 N/A
11:53 am 11:53 Sunny 78 25.6 67 19.4 69 69 S 6 9 29.97 1015 10 16 N/A
12:53 pm 12:53 Sunny 81 27.2 68 20 65 65 S 6 9 29.96 1015 10 16 N/A
1:53 pm 13:53 Mostly Cloudy 82 27.8 66 18.9 58 58 SSW 8 13 29.95 1014 10 16 N/A
2:53 pm 14:53 Mostly Cloudy 83 28.3 67 19.4 59 59 SSW 9 15 29.93 1014 10 16 N/A
3:53 pm 15:53 Partly Cloudy 83 28.3 67 19.4 59 59 SSW 3 6 29.88 1012 10 16 N/A
4:53 pm 16:53 Mostly Sunny 81 27.2 70 21.1 69 69 S 8 13 29.87 1012 10 16 N/A
5:53 pm 17:53 Sunny 80 26.7 71 21.7 74 74 SSE 3 6 29.87 1012 10 16 N/A
6:53 pm 18:53 Sunny 82 27.8 70 21.1 67 67 N N/A 29.88 1012 10 16 N/A
7:53 pm 19:53 Sunny 79 26.1 70 21.1 74 74 SSE 3 6 29.87 1011 10 16 N/A
8:53 pm 20:53 Clear 76 24.4 70 21.1 82 82 N N/A 29.87 1011 10 16 N/A
9:53 pm 21:53 Clear 73 22.8 70 21.1 90 90 N N/A 29.87 1011 10 16 N/A
10:53 pm 22:53 Mostly Cloudy 74 23.3 70 21.1 88 88 N N/A 29.85 1011 10 16 0.00 0.00
11:53 pm 23:53 Cloudy 73 22.8 71 21.7 94 94 N N/A 29.85 1011 10 16 N/A

Powered by AerisWeather